Time,TemperatureF,DewpointF,PressureIn,WindDirection,WindDirectionDegrees,WindSpeedMPH,WindSpeedGustMPH,Humidity,HourlyPrecipIn,Conditions,Clouds,dailyrainin,SoftwareType,DateUTC
2013-05-19 00:02:00,53.0,-99.9,-100.00,North,-999,-999.0,-999.0,-999,0.00,,,0.23,,2013-05-19 05:02:00,
2013-05-19 00:12:00,53.0,-99.9,-100.00,North,-999,-999.0,-999.0,-999,0.00,,,0.23,,2013-05-19 05:12:00,
2013-05-19 00:22:00,53.0,-99.9,-100.00,North,-999,-999.0,-999.0,-999,0.00,,,0.23,,2013-05-19 05:22:00,
2013-05-19 00:30:00,51.0,-99.9,-100.00,North,-999,-999.0,-999.0,-999,0.00,,,0.23,,2013-05-19 05:30:00,
2013-05-19 00:52:00,51.0,-99.9,-100.00,North,-999,-999.0,-999.0,-999,0.00,,,0.23,,2013-05-19 05:52:00,
2013-05-19 01:02:00,51.0,-99.9,-100.00,North,-999,-999.0,-999.0,-999,0.00,,,0.23,,2013-05-19 06:02:00,
2013-05-19 01:12:00,51.0,-99.9,-100.00,North,-999,-999.0,-999.0,-999,0.00,,,0.23,,2013-05-19 06:12:00,
2013-05-19 01:22:00,51.0,-99.9,-100.00,North,-999,-999.0,-999.0,-999,0.00,,,0.23,,2013-05-19 06:22:00,
2013-05-19 01:30:00,48.0,-99.9,-100.00,North,-999,-999.0,-999.0,-999,0.00,,,0.23,,2013-05-19 06:30:00,
2013-05-19 01:52:00,48.0,-99.9,-100.00,North,-999,-999.0,-999.0,-999,0.00,,,0.23,,2013-05-19 06:52:00,
2013-05-19 02:02:00,48.0,-99.9,-100.00,North,-999,-999.0,-999.0,-999,0.00,,,0.23,,2013-05-19 07:02:00,
2013-05-19 02:11:00,48.0,-99.9,-100.00,North,-999,-999.0,-999.0,-999,0.00,,,0.23,,2013-05-19 07:11:00,
2013-05-19 02:22:00,48.0,-99.9,-100.00,North,-999,-999.0,-999.0,-999,0.00,,,0.23,,2013-05-19 07:22:00,
2013-05-19 02:30:00,48.0,-99.9,-100.00,North,-999,-999.0,-999.0,-999,0.01,,,0.24,,2013-05-19 07:30:00,
2013-05-19 02:52:00,48.0,-99.9,-100.00,North,-999,-999.0,-999.0,-999,0.01,,,0.24,,2013-05-19 07:52:00,
2013-05-19 03:02:00,48.0,-99.9,-100.00,North,-999,-999.0,-999.0,-999,0.01,,,0.24,,2013-05-19 08:02:00,
2013-05-19 03:12:00,48.0,-99.9,-100.00,North,-999,-999.0,-999.0,-999,0.01,,,0.24,,2013-05-19 08:12:00,
2013-05-19 03:22:00,48.0,-99.9,-100.00,North,-999,-999.0,-999.0,-999,0.01,,,0.24,,2013-05-19 08:22:00,
2013-05-19 03:30:00,49.0,-99.9,-100.00,North,-999,-999.0,-999.0,-999,0.00,,,0.24,,2013-05-19 08:30:00,
2013-05-19 03:52:00,49.0,-99.9,-100.00,North,-999,-999.0,-999.0,-999,0.00,,,0.24,,2013-05-19 08:52:00,
2013-05-19 04:02:00,49.0,-99.9,-100.00,North,-999,-999.0,-999.0,-999,0.00,,,0.24,,2013-05-19 09:02:00,
2013-05-19 04:12:00,49.0,-99.9,-100.00,North,-999,-999.0,-999.0,-999,0.00,,,0.24,,2013-05-19 09:12:00,
2013-05-19 04:22:00,49.0,-99.9,-100.00,North,-999,-999.0,-999.0,-999,0.00,,,0.24,,2013-05-19 09:22:00,
2013-05-19 04:30:00,49.0,-99.9,-100.00,North,-999,-999.0,-999.0,-999,0.00,,,0.24,,2013-05-19 09:30:00,
2013-05-19 04:53:00,49.0,-99.9,-100.00,North,-999,-999.0,-999.0,-999,0.00,,,0.24,,2013-05-19 09:53:00,
2013-05-19 05:03:00,49.0,-99.9,-100.00,North,-999,-999.0,-999.0,-999,0.00,,,0.24,,2013-05-19 10:03:00,
2013-05-19 05:13:00,49.0,-99.9,-100.00,North,-999,-999.0,-999.0,-999,0.00,,,0.24,,2013-05-19 10:13:00,
2013-05-19 05:23:00,49.0,-99.9,-100.00,North,-999,-999.0,-999.0,-999,0.00,,,0.24,,2013-05-19 10:23:00,
2013-05-19 05:30:00,50.0,-99.9,-100.00,North,-999,-999.0,-999.0,-999,0.00,,,0.24,,2013-05-19 10:30:00,
2013-05-19 05:53:00,50.0,-99.9,-100.00,North,-999,-999.0,-999.0,-999,0.00,,,0.24,,2013-05-19 10:53:00,
2013-05-19 06:03:00,50.0,-99.9,-100.00,North,-999,-999.0,-999.0,-999,0.00,,,0.24,,2013-05-19 11:03:00,
2013-05-19 06:12:00,50.0,-99.9,-100.00,North,-999,-999.0,-999.0,-999,0.00,,,0.24,,2013-05-19 11:12:00,
2013-05-19 06:22:00,50.0,-99.9,-100.00,North,-999,-999.0,-999.0,-999,0.00,,,0.24,,2013-05-19 11:22:00,
2013-05-19 06:30:00,51.0,-99.9,-100.00,North,-999,-999.0,-999.0,-999,0.00,,,0.23,,2013-05-19 11:30:00,
2013-05-19 06:53:00,51.0,-99.9,-100.00,North,-999,-999.0,-999.0,-999,0.00,,,0.23,,2013-05-19 11:53:00,
2013-05-19 07:02:00,51.0,-99.9,-100.00,North,-999,-999.0,-999.0,-999,0.00,,,0.23,,2013-05-19 12:02:00,
2013-05-19 07:12:00,51.0,-99.9,-100.00,North,-999,-999.0,-999.0,-999,0.00,,,0.23,,2013-05-19 12:12:00,
2013-05-19 07:22:00,51.0,-99.9,-100.00,North,-999,-999.0,-999.0,-999,0.00,,,0.23,,2013-05-19 12:22:00,
2013-05-19 07:30:00,53.0,-99.9,-100.00,North,-999,-999.0,-999.0,-999,0.01,,,0.22,,2013-05-19 12:30:00,
2013-05-19 07:52:00,53.0,-99.9,-100.00,North,-999,-999.0,-999.0,-999,0.01,,,0.22,,2013-05-19 12:52:00,
2013-05-19 08:02:00,53.0,-99.9,-100.00,North,-999,-999.0,-999.0,-999,0.01,,,0.22,,2013-05-19 13:02:00,
2013-05-19 08:12:00,53.0,-99.9,-100.00,North,-999,-999.0,-999.0,-999,0.01,,,0.22,,2013-05-19 13:12:00,
2013-05-19 08:22:00,53.0,-99.9,-100.00,North,-999,-999.0,-999.0,-999,0.01,,,0.22,,2013-05-19 13:22:00,
2013-05-19 08:30:00,56.0,-99.9,-100.00,North,-999,-999.0,-999.0,-999,0.00,,,0.14,,2013-05-19 13:30:00,
2013-05-19 08:52:00,56.0,-99.9,-100.00,North,-999,-999.0,-999.0,-999,0.00,,,0.14,,2013-05-19 13:52:00,
2013-05-19 09:02:00,56.0,-99.9,-100.00,North,-999,-999.0,-999.0,-999,0.00,,,0.14,,2013-05-19 14:02:00,
2013-05-19 09:11:00,56.0,-99.9,-100.00,North,-999,-999.0,-999.0,-999,0.00,,,0.14,,2013-05-19 14:11:00,
2013-05-19 09:22:00,56.0,-99.9,-100.00,North,-999,-999.0,-999.0,-999,0.00,,,0.14,,2013-05-19 14:22:00,
2013-05-19 09:30:00,58.0,-99.9,-100.00,North,-999,-999.0,-999.0,-999,0.00,,,0.12,,2013-05-19 14:30:00,
2013-05-19 09:52:00,58.0,-99.9,-100.00,North,-999,-999.0,-999.0,-999,0.00,,,0.12,,2013-05-19 14:52:00,
2013-05-19 10:02:00,58.0,-99.9,-100.00,North,-999,-999.0,-999.0,-999,0.00,,,0.12,,2013-05-19 15:02:00,
2013-05-19 10:12:00,58.0,-99.9,-100.00,North,-999,-999.0,-999.0,-999,0.00,,,0.12,,2013-05-19 15:12:00,
2013-05-19 10:22:00,58.0,-99.9,-100.00,North,-999,-999.0,-999.0,-999,0.00,,,0.12,,2013-05-19 15:22:00,
2013-05-19 10:30:00,57.0,-99.9,-100.00,North,-999,-999.0,-999.0,-999,0.00,,,0.12,,2013-05-19 15:30:00,
2013-05-19 10:53:00,57.0,-99.9,-100.00,North,-999,-999.0,-999.0,-999,0.00,,,0.12,,2013-05-19 15:53:00,
2013-05-19 11:03:00,57.0,-99.9,-100.00,North,-999,-999.0,-999.0,-999,0.00,,,0.12,,2013-05-19 16:03:00,
2013-05-19 11:13:00,57.0,-99.9,-100.00,North,-999,-999.0,-999.0,-999,0.00,,,0.12,,2013-05-19 16:13:00,
2013-05-19 11:24:00,57.0,-99.9,-100.00,North,-999,-999.0,-999.0,-999,0.00,,,0.12,,2013-05-19 16:24:00,
2013-05-19 11:30:00,58.0,-99.9,-100.00,North,-999,-999.0,-999.0,-999,0.00,,,0.10,,2013-05-19 16:30:00,
2013-05-19 11:53:00,58.0,-99.9,-100.00,North,-999,-999.0,-999.0,-999,0.00,,,0.10,,2013-05-19 16:53:00,
2013-05-19 12:02:00,58.0,-99.9,-100.00,North,-999,-999.0,-999.0,-999,0.00,,,0.10,,2013-05-19 17:02:00,
2013-05-19 12:12:00,58.0,-99.9,-100.00,North,-999,-999.0,-999.0,-999,0.00,,,0.10,,2013-05-19 17:12:00,
2013-05-19 12:22:00,58.0,-99.9,-100.00,North,-999,-999.0,-999.0,-999,0.00,,,0.10,,2013-05-19 17:22:00,
2013-05-19 12:30:00,61.0,-99.9,-100.00,North,-999,-999.0,-999.0,-999,0.00,,,0.08,,2013-05-19 17:30:00,
2013-05-19 12:52:00,61.0,-99.9,-100.00,North,-999,-999.0,-999.0,-999,0.00,,,0.08,,2013-05-19 17:52:00,
2013-05-19 13:03:00,61.0,-99.9,-100.00,North,-999,-999.0,-999.0,-999,0.00,,,0.08,,2013-05-19 18:03:00,
2013-05-19 13:12:00,61.0,-99.9,-100.00,North,-999,-999.0,-999.0,-999,0.00,,,0.08,,2013-05-19 18:12:00,
2013-05-19 13:22:00,61.0,-99.9,-100.00,North,-999,-999.0,-999.0,-999,0.00,,,0.08,,2013-05-19 18:22:00,
2013-05-19 13:30:00,61.0,-99.9,-100.00,North,-999,-999.0,-999.0,-999,0.00,,,0.07,,2013-05-19 18:30:00,
2013-05-19 13:53:00,61.0,-99.9,-100.00,North,-999,-999.0,-999.0,-999,0.00,,,0.07,,2013-05-19 18:53:00,
2013-05-19 14:02:00,61.0,-99.9,-100.00,North,-999,-999.0,-999.0,-999,0.00,,,0.07,,2013-05-19 19:02:00,
2013-05-19 14:11:00,61.0,-99.9,-100.00,North,-999,-999.0,-999.0,-999,0.00,,,0.07,,2013-05-19 19:11:00,
2013-05-19 14:22:00,61.0,-99.9,-100.00,North,-999,-999.0,-999.0,-999,0.00,,,0.07,,2013-05-19 19:22:00,
2013-05-19 14:30:00,57.0,-99.9,-100.00,North,-999,-999.0,-999.0,-999,0.00,,,0.06,,2013-05-19 19:30:00,
2013-05-19 14:53:00,57.0,-99.9,-100.00,North,-999,-999.0,-999.0,-999,0.00,,,0.06,,2013-05-19 19:53:00,
2013-05-19 15:02:00,57.0,-99.9,-100.00,North,-999,-999.0,-999.0,-999,0.00,,,0.06,,2013-05-19 20:02:00,
2013-05-19 15:12:00,57.0,-99.9,-100.00,North,-999,-999.0,-999.0,-999,0.00,,,0.06,,2013-05-19 20:12:00,
2013-05-19 15:22:00,57.0,-99.9,-100.00,North,-999,-999.0,-999.0,-999,0.00,,,0.06,,2013-05-19 20:22:00,
2013-05-19 15:30:00,55.0,-99.9,-100.00,North,-999,-999.0,-999.0,-999,0.02,,,0.05,,2013-05-19 20:30:00,
2013-05-19 15:52:00,55.0,-99.9,-100.00,North,-999,-999.0,-999.0,-999,0.02,,,0.05,,2013-05-19 20:52:00,
2013-05-19 16:02:00,55.0,-99.9,-100.00,North,-999,-999.0,-999.0,-999,0.02,,,0.05,,2013-05-19 21:02:00,
2013-05-19 16:11:00,55.0,-99.9,-100.00,North,-999,-999.0,-999.0,-999,0.02,,,0.05,,2013-05-19 21:11:00,
2013-05-19 16:22:00,55.0,-99.9,-100.00,North,-999,-999.0,-999.0,-999,0.02,,,0.05,,2013-05-19 21:22:00,
2013-05-19 16:30:00,56.0,-99.9,-100.00,North,-999,-999.0,-999.0,-999,0.00,,,0.04,,2013-05-19 21:30:00,
2013-05-19 16:53:00,56.0,-99.9,-100.00,North,-999,-999.0,-999.0,-999,0.00,,,0.04,,2013-05-19 21:53:00,
2013-05-19 17:03:00,56.0,-99.9,-100.00,North,-999,-999.0,-999.0,-999,0.00,,,0.04,,2013-05-19 22:03:00,
2013-05-19 17:13:00,56.0,-99.9,-100.00,North,-999,-999.0,-999.0,-999,0.00,,,0.04,,2013-05-19 22:13:00,
2013-05-19 17:23:00,56.0,-99.9,-100.00,North,-999,-999.0,-999.0,-999,0.00,,,0.04,,2013-05-19 22:23:00,
2013-05-19 17:30:00,57.0,-99.9,-100.00,North,-999,-999.0,-999.0,-999,0.00,,,0.04,,2013-05-19 22:30:00,
2013-05-19 17:53:00,57.0,-99.9,-100.00,North,-999,-999.0,-999.0,-999,0.00,,,0.04,,2013-05-19 22:53:00,
2013-05-19 18:03:00,57.0,-99.9,-100.00,North,-999,-999.0,-999.0,-999,0.00,,,0.04,,2013-05-19 23:03:00,
2013-05-19 18:12:00,57.0,-99.9,-100.00,North,-999,-999.0,-999.0,-999,0.00,,,0.04,,2013-05-19 23:12:00,
2013-05-19 18:22:00,57.0,-99.9,-100.00,North,-999,-999.0,-999.0,-999,0.00,,,0.04,,2013-05-19 23:22:00,
2013-05-19 18:30:00,56.0,-99.9,-100.00,North,-999,-999.0,-999.0,-999,0.00,,,0.04,,2013-05-19 23:30:00,
2013-05-19 18:53:00,56.0,-99.9,-100.00,North,-999,-999.0,-999.0,-999,0.00,,,0.04,,2013-05-19 23:53:00,
2013-05-19 19:02:00,56.0,-99.9,-100.00,North,-999,-999.0,-999.0,-999,0.00,,,0.04,,2013-05-20 00:02:00,
2013-05-19 19:12:00,56.0,-99.9,-100.00,North,-999,-999.0,-999.0,-999,0.00,,,0.04,,2013-05-20 00:12:00,
2013-05-19 19:22:00,56.0,-99.9,-100.00,North,-999,-999.0,-999.0,-999,0.00,,,0.04,,2013-05-20 00:22:00,
2013-05-19 19:30:00,56.0,-99.9,-100.00,North,-999,-999.0,-999.0,-999,0.00,,,0.04,,2013-05-20 00:30:00,
2013-05-19 19:52:00,56.0,-99.9,-100.00,North,-999,-999.0,-999.0,-999,0.00,,,0.04,,2013-05-20 00:52:00,
2013-05-19 20:02:00,56.0,-99.9,-100.00,North,-999,-999.0,-999.0,-999,0.00,,,0.04,,2013-05-20 01:02:00,
2013-05-19 20:11:00,56.0,-99.9,-100.00,North,-999,-999.0,-999.0,-999,0.00,,,0.04,,2013-05-20 01:11:00,
2013-05-19 20:22:00,56.0,-99.9,-100.00,North,-999,-999.0,-999.0,-999,0.00,,,0.04,,2013-05-20 01:22:00,
2013-05-19 20:30:00,54.0,-99.9,-100.00,North,-999,-999.0,-999.0,-999,0.00,,,0.04,,2013-05-20 01:30:00,
2013-05-19 20:52:00,54.0,-99.9,-100.00,North,-999,-999.0,-999.0,-999,0.00,,,0.04,,2013-05-20 01:52:00,
2013-05-19 21:02:00,54.0,-99.9,-100.00,North,-999,-999.0,-999.0,-999,0.00,,,0.04,,2013-05-20 02:02:00,
2013-05-19 21:12:00,54.0,-99.9,-100.00,North,-999,-999.0,-999.0,-999,0.00,,,0.04,,2013-05-20 02:12:00,
2013-05-19 21:22:00,54.0,-99.9,-100.00,North,-999,-999.0,-999.0,-999,0.00,,,0.04,,2013-05-20 02:22:00,
2013-05-19 21:30:00,54.0,-99.9,-100.00,North,-999,-999.0,-999.0,-999,0.00,,,0.04,,2013-05-20 02:30:00,
2013-05-19 21:52:00,54.0,-99.9,-100.00,North,-999,-999.0,-999.0,-999,0.00,,,0.04,,2013-05-20 02:52:00,
2013-05-19 22:02:00,54.0,-99.9,-100.00,North,-999,-999.0,-999.0,-999,0.00,,,0.04,,2013-05-20 03:02:00,
2013-05-19 22:12:00,54.0,-99.9,-100.00,North,-999,-999.0,-999.0,-999,0.00,,,0.04,,2013-05-20 03:12:00,
2013-05-19 22:22:00,54.0,-99.9,-100.00,North,-999,-999.0,-999.0,-999,0.00,,,0.04,,2013-05-20 03:22:00,
2013-05-19 22:30:00,53.0,-99.9,-100.00,North,-999,-999.0,-999.0,-999,0.00,,,0.04,,2013-05-20 03:30:00,
2013-05-19 22:53:00,53.0,-99.9,-100.00,North,-999,-999.0,-999.0,-999,0.00,,,0.04,,2013-05-20 03:53:00,
2013-05-19 23:03:00,53.0,-99.9,-100.00,North,-999,-999.0,-999.0,-999,0.00,,,0.04,,2013-05-20 04:03:00,
2013-05-19 23:13:00,53.0,-99.9,-100.00,North,-999,-999.0,-999.0,-999,0.00,,,0.04,,2013-05-20 04:13:00,
2013-05-19 23:23:00,53.0,-99.9,-100.00,North,-999,-999.0,-999.0,-999,0.00,,,0.04,,2013-05-20 04:23:00,
2013-05-19 23:30:00,53.0,-99.9,-100.00,North,-999,-999.0,-999.0,-999,0.01,,,0.05,,2013-05-20 04:30:00,
2013-05-19 23:53:00,53.0,-99.9,-100.00,North,-999,-999.0,-999.0,-999,0.01,,,0.05,,2013-05-20 04:53:00,